Regional Weather Roundup
Issued by NWS

Home | Current Version | Previous Version | Graphics & Text | Print | Product List | Glossary On
Versions: 1 2 3 4 5 6 7 8 9 10 11 12 13 14 15 16 17 18 19 20 21 22 23 24 25 26 27 28 29 30 31 32 33 34 35 36 37 38 39 40 41 42 43 44 45 46 47 48 49 50
000
ASUS43 KMPX 272210
RWRMN
WEATHER ROUNDUP FOR MINNESOTA
NATIONAL WEATHER SERVICE TWIN CITIES/CHANHASSEN MN
500 PM CDT SAT AUG 27 2016


NOTE: "FAIR" INDICATES FEW OR NO CLOUDS BELOW 12,000 FEET WITH NO
SIGNIFICANT WEATHER AND/OR OBSTRUCTIONS TO VISIBILITY. N/A MEANS
CURRENT SKY AND/OR WEATHER CONDITIONS ARE NOT AVAILABLE.

MNZ060>063-068>070-272300-
   Twin Cities Metro

CITY           SKY/WX    TMP DP  RH WIND       PRES   REMARKS
TWIN CITIES    CLOUDY    67  62  84 SW5       30.00S
ST PAUL        CLOUDY    67  63  87 SE7       30.00S
CRYSTAL        CLOUDY    66  60  81 S6        29.98S
BLAINE         CLOUDY    68  64  88 S5        29.99F
LAKEVILLE      CLOUDY    64  64 100 CALM      30.00S
EDEN PRAIRIE   CLOUDY    68  63  84 SW7       29.98S
LAKEVILLE      CLOUDY    64  64 100 CALM      30.00S
SOUTH ST PAUL  CLOUDY    66  64  94 S5        29.99S FOG
LAKE ELMO      CLOUDY    64  63  94 SE3       30.01S
$$
MNZ001>005-007-008-013>017-022>024-027-028-272300-
   Northwest Minnesota

CITY           SKY/WX    TMP DP  RH WIND       PRES   REMARKS
BEMIDJI        PTSUNNY   57  53  89 CALM      29.94F
HALLOCK        LGT RAIN  64  61  88 S3        29.92R
ROSEAU         CLOUDY    63  57  82 SE6       29.95R
WARROAD        CLOUDY    61  57  88 CALM      29.96R
THIEF RVR FALL CLOUDY    65  57  75 S6        29.93F
CROOKSTON      MOSUNNY   66  61  82 S8        29.91S
FOSSTON        PTSUNNY   68  61  77 S5        29.94S
DETROIT LAKES  MOSUNNY   70  57  64 S9        29.96F
MOORHEAD       CLOUDY    72  59  64 SE12      29.92F
PARK RAPIDS    CLOUDY    70  56  61 NW6       29.98R
MAHNOMEN       FAIR      67  58  73 S6        29.94F
$$
MNZ006-009>011-018-025>026-272300-
   North Central Minnesota

CITY           SKY/WX    TMP DP  RH WIND       PRES   REMARKS
BAUDETTE       CLOUDY    59  56  89 S6        29.96R
FLAG ISLAND    CLOUDY    63  57  82 CALM      29.94S HAZE
INTL FALLS     RAIN      57  55  93 SW5       30.00R FOG
WASKISH        CLOUDY    57  55  94 SE8       29.95F
BIG FORK       CLOUDY    55  54  94 N6G20     30.03R
LONGVILLE      CLOUDY    68  59  73 SE5       29.98F
GRAND RAPIDS   LGT RAIN  65  59  81 CALM      30.02R
CRANE LAKE     CLOUDY    61  59  94 CALM      30.01F
ORR            CLOUDY    63  55  77 CALM      29.97F
COOK           CLOUDY    64  55  72 SE6       30.01F
WALKER         CLOUDY    65  57  77 N12       29.99R THUNDER
$$
MNZ012-019>021-037-272300-
   Northeast Minnesota

CITY           SKY/WX    TMP DP  RH WIND       PRES   REMARKS
DULUTH         CLOUDY    63  58  83 E9        30.02F
ELY            CLOUDY    63  52  67 SE6       30.02F
HIBBING        CLOUDY    66  55  67 SE9       30.00F
EVELETH        PTSUNNY   65  53  64 SE8       30.02S
DULUTH HARBOR  CLOUDY    64  61  88 NE10      30.02S
TWO HARBORS    CLOUDY    66  59  77 E8        30.01F
SILVER BAY     CLOUDY    64  57  77 NE6       30.02S
GRAND MARAIS     N/A     64  56  75 E7        30.04F
G MARAIS ARPRT PTSUNNY   61  48  63 E5        30.08S
$$
MNZ029>031-032-039>041-046>048-054>057-064-272300-
   West Central Minnesota

CITY           SKY/WX    TMP DP  RH WIND       PRES   REMARKS
FERGUS FALLS   CLOUDY    70  57  64 SE9       29.97F
WHEATON        SUNNY     75  63  64 S8        29.96S
MORRIS         PTSUNNY   73  59  60 S5        29.97S
ALEXANDRIA     CLOUDY    68  57  68 S9        30.00F
ELBOW LAKE     FAIR      71  60  67 S9        29.97F
WADENA         MOSUNNY   68  55  64 S10       29.98F
GLENWOOD       MOSUNNY   66  57  72 SE6       30.00S
APPLETON       MOSUNNY   72  57  60 SE5       29.96S
BENSON         MOSUNNY   70  57  64 CALM      29.98S
ORTONVILLE     SUNNY     73  61  64 SE8       29.95S
MADISON        MOSUNNY   73  61  64 S7        29.95F
WILLMAR        PTSUNNY   70  63  78 CALM      30.00S
$$
MNZ033>034-036-042>043-049>051-058-059-272300-
   Central Minnesota

CITY           SKY/WX    TMP DP  RH WIND       PRES   REMARKS
ST CLOUD       LGT RAIN  62  62 100 CALM      30.01S FOG
SAUK CENTRE    CLOUDY    66  59  76 S5        30.00S
PAYNESVILLE    CLOUDY    65  59  80 E5        30.00F
AITKIN         CLOUDY    68  54  60 S7        30.00S
PINE RIVER     PTSUNNY   68  61  77 S7        30.01F
BRAINERD       CLOUDY    65  58  78 S9        30.01R
STAPLES        PTSUNNY   66  55  68 SE8       29.99F
LONG PRAIRIE   CLOUDY    64  55  72 SE6       30.01S
LITTLE FALLS   CLOUDY    64  55  72 SW5       30.01S
LITCHFIELD     PTSUNNY   70  63  78 CALM      30.00S
BUFFALO        CLOUDY    65  60  83 S6        30.01R
MAPLE LAKE     CLOUDY    66  64  94 CALM      30.01S
HUTCHINSON     CLOUDY    70  63  79 SW3       30.00S
$$
MNZ037-044-045-052-053-272300-
   East Central Minnesota

CITY           SKY/WX    TMP DP  RH WIND       PRES   REMARKS
PRINCETON      RAIN      64  63  94 CALM      30.01R
MORA           RAIN      61  55  82 CALM      30.03R
CAMBRIDGE      HVY RAIN  64  59  82 CALM      29.99S
RUSH CITY      LGT RAIN  62  60  92 E5        30.01R
MOOSE LAKE     CLOUDY    64  57  77 CALM      30.00R
HINCKLEY       CLOUDY    64  61  88 E5        30.00F
CLOQUET        CLOUDY    63  57  82 E6        30.02S
MCGREGOR       CLOUDY    64  55  72 S7        30.02R
$$
MNZ071>073-080-081-089-090-097-098-272300-
   Southwest Minnesota

CITY           SKY/WX    TMP DP  RH WIND       PRES   REMARKS
MONTEVIDEO     PTSUNNY   75  63  64 S5        29.99S
GRANITE FALLS  PTSUNNY   72  63  72 S5        29.99S
CANBY          SUNNY     74  61  65 SW8       29.97F
MARSHALL       MOSUNNY   73  62  68 SW6       29.98S
REDWOOD FALLS  PTSUNNY   73  62  68 S8        29.98S
OLIVIA         CLOUDY    70  61  73 CALM      29.98S
PIPESTONE      MOSUNNY   73  61  64 S6        30.00S
WINDOM         PTSUNNY   72  63  73 SW7       30.00S
WORTHINGTON    PTSUNNY   74  63  68 S8        30.01S
JACKSON          N/A     72  61  68 SW7       30.01S
TRACY          MOSUNNY   73  63  70 SW7       29.99S
$$
MNZ065>067-074>077-082>085-091>093-272300-
   South Central Minnesota

CITY           SKY/WX    TMP DP  RH WIND       PRES   REMARKS
MANKATO        CLOUDY    70  63  78 SW6       29.99F
NEW ULM        PTSUNNY   72  64  78 SW7       29.98F
ST JAMES       PTSUNNY   68  59  73 SW10G16   30.00S
FAIRMONT       PTSUNNY   73  63  70 SW8       30.00S
GLENCOE        CLOUDY    69  65  86 S5        29.99S
FARIBAULT      CLOUDY    66  64  94 SW7       30.01S
OWATONNA       CLOUDY    70  63  78 SW7       30.01S
WASECA         CLOUDY    70  63  78 W5        30.02S
ALBERT LEA     CLOUDY    72  64  78 CALM      30.01S
$$
MNZ078>079-086>088-094>096-272300-
   Southeast Minnesota

CITY           SKY/WX    TMP DP  RH WIND       PRES   REMARKS
ROCHESTER      CLOUDY    70  65  84 SW6       30.02S
RED WING       CLOUDY    66  64  94 SE3       29.99R FOG
STANTON        CLOUDY    70  64  83 W5        29.98F
DODGE CENTER   CLOUDY    70  64  83 W6        30.02R
WINONA         CLOUDY    70  63  78 SE6       30.00S
AUSTIN         CLOUDY    72  64  78 SW3       30.01S
PRESTON        CLOUDY    69  64  84 SW3       30.02S
$$
ABBREVIATIONS USED IN REMARKS
   TC - TEMPERATURES IN CELSIUS
  WCI - WIND CHILL INDEX
   HX - HEAT INDEX
  VSB - VISIBILITY
$$




USA.gov is the U.S. government's official web portal to all federal, state and local government web resources and services.